GW3154 Weather Reports


Display with metric or nautical units.
time (UTC)temp
F
wind
direction
speed
MPH
gust
MPH
rain 1hr
in
rain 24hr
in
rain mn
in
humidity
%
barometer
mb
20260509050520 56 52 0.0 1.0 0.00 0.00 0.00 83 1023.2
20260509045017 56 55 0.0 0.0 0.00 0.00 0.00 84 1023.2
20260509043513 57 55 0.0 0.0 0.00 0.00 0.00 85 1023.0
20260509042008 58 55 0.0 0.0 0.00 0.00 0.00 82 1022.9
20260509040507 58 55 0.0 0.0 0.00 0.00 0.00 79 1022.8
20260509035002 60 56 0.0 0.0 0.00 0.00 0.00 75 1023.0
20260509033500 61 58 0.0 0.0 0.00 0.00 0.00 75 1022.7
20260509031958 62 66 0.0 0.0 0.00 0.00 0.00 72 1022.5
20260509030456 64 69 0.0 0.0 0.00 0.00 0.00 66 1022.3
20260509024956 65 53 0.0 0.0 0.00 0.00 0.00 65 1022.2
20260509023451 67 123 0.0 0.0 0.00 0.00 0.00 61 1022.3
20260509021949 67 22 1.0 1.0 0.00 0.00 0.00 58 1022.0
20260509020446 68 194 0.0 0.0 0.00 0.00 0.00 59 1022.2
20260509014944 67 260 0.0 0.0 0.00 0.00 0.00 57 1022.3
20260509013440 68 281 1.0 2.0 0.00 0.00 0.00 57 1022.3
20260509011940 68 64 0.0 0.0 0.00 0.00 0.00 55 1022.3
20260509010439 69 31 2.0 3.0 0.00 0.00 0.00 53 1022.8
20260509004940 70 133 0.0 0.0 0.00 0.00 0.00 51 1022.7
20260509003438 72 274 1.0 1.0 0.00 0.00 0.00 48 1022.6
20260509001935 73 207 2.0 3.0 0.00 0.00 0.00 48 1022.7
20260509000432 72 297 1.0 1.0 0.00 0.00 0.00 49 1022.6
20260508234928 72 52 1.0 1.0 0.00 0.00 0.00 47 1022.6
20260508233428 71 188 1.0 2.0 0.00 0.00 0.00 49 1022.8
20260508231925 71 187 0.0 0.0 0.00 0.00 0.00 49 1022.9
20260508230421 71 57 0.0 0.0 0.00 0.00 0.00 47 1022.9
20260508224918 70 40 0.0 0.0 0.00 0.00 0.00 48 1022.8
20260508223416 70 338 1.0 1.0 0.00 0.00 0.00 50 1023.0
20260508221913 70 190 0.0 1.0 0.00 0.00 0.00 50 1022.9
20260508220413 70 212 0.0 1.0 0.00 0.00 0.00 47 1023.1
20260508214909 69 183 2.0 2.0 0.00 0.00 0.00 50 1023.3
20260508213406 68 197 2.0 2.0 0.00 0.00 0.00 54 1023.3
20260508211906 68 60 1.0 1.0 0.00 0.00 0.00 49 1023.2
20260508210401 66 186 2.0 2.0 0.00 0.00 0.00 54 1023.2
20260508204857 66 213 1.0 1.0 0.00 0.00 0.00 53 1023.3
20260508203352 64 178 1.0 1.0 0.00 0.00 0.00 54 1023.3
20260508201848 66 99 0.0 1.0 0.00 0.00 0.00 52 1023.3
20260508200344 64 182 2.0 2.0 0.00 0.00 0.00 56 1023.6
20260508194839 63 195 1.0 2.0 0.00 0.00 0.00 58 1023.7
20260508193335 64 190 2.0 3.0 0.00 0.00 0.00 60 1023.7
20260508191832 64 172 0.0 0.0 0.00 0.00 0.00 58 1023.8
20260508190328 62 101 2.0 2.0 0.00 0.00 0.00 58 1023.7
20260508184825 61 186 2.0 2.0 0.00 0.00 0.00 61 1024.1
20260508183322 62 211 2.0 2.0 0.00 0.00 0.00 64 1023.9
20260508181822 62 181 1.0 1.0 0.00 0.00 0.00 62 1023.9
20260508180319 60 284 2.0 3.0 0.00 0.00 0.00 63 1023.9
20260508174816 58 200 0.0 0.0 0.00 0.00 0.00 68 1023.6
20260508173312 56 215 1.0 1.0 0.00 0.00 0.00 70 1023.6
20260508171808 56 236 1.0 1.0 0.00 0.00 0.00 72 1023.4
20260508170305 59 206 6.0 8.0 0.00 0.00 0.00 68 1023.4
20260508164800 55 234 2.0 3.0 0.00 0.00 0.00 74 1023.3
20260508163258 55 197 1.0 2.0 0.00 0.00 0.00 77 1023.1
20260508161754 54 202 3.0 5.0 0.00 0.00 0.00 78 1022.8
20260508160253 53 171 2.0 3.0 0.00 0.00 0.00 82 1022.5
20260508154748 53 184 3.0 3.0 0.00 0.00 0.00 83 1023.1
20260508153246 53 155 3.0 3.0 0.00 0.00 0.00 83 1022.8
20260508151745 51 181 0.0 1.0 0.00 0.00 0.00 86 1022.8
20260508150242 50 160 2.0 3.0 0.00 0.00 0.00 90 1022.8
20260508144742 49 158 1.0 1.0 0.00 0.00 0.00 91 1022.8
20260508143240 49 181 0.0 0.0 0.00 0.00 0.00 91 1023.2
20260508141735 49 193 0.0 1.0 0.00 0.00 0.00 91 1023.0
20260508140233 48 178 2.0 3.0 0.00 0.00 0.00 91 1023.2
20260508134732 48 182 0.0 1.0 0.00 0.00 0.00 92 1022.6
20260508133230 48 195 0.0 1.0 0.00 0.00 0.00 93 1022.3
20260508131726 46 89 0.0 0.0 0.00 0.00 0.00 93 1022.1
20260508130223 46 101 0.0 0.0 0.00 0.00 0.00 92 1021.8
20260508124719 47 91 0.0 0.0 0.00 0.00 0.00 92 1021.6
20260508123217 47 85 0.0 0.0 0.00 0.00 0.00 92 1021.4
20260508121714 48 85 0.0 0.0 0.00 0.00 0.00 94 1021.1
20260508120213 48 172 0.0 0.0 0.00 0.00 0.00 94 1021.0
20260508114709 48 100 0.0 0.0 0.00 0.00 0.00 93 1020.9
20260508113207 49 195 0.0 0.0 0.00 0.00 0.00 93 1020.6
20260508111702 49 225 0.0 0.0 0.00 0.00 0.00 92 1020.6
20260508110200 49 178 1.0 1.0 0.00 0.00 0.00 92 1020.2
20260508104700 50 92 0.0 0.0 0.00 0.00 0.00 92 1019.9
20260508103157 49 78 0.0 0.0 0.00 0.00 0.00 92 1019.8
20260508101655 50 170 0.0 0.0 0.00 0.00 0.00 91 1019.9
20260508100154 50 177 0.0 1.0 0.00 0.00 0.00 91 1019.6
20260508094649 49 177 0.0 1.0 0.00 0.00 0.00 91 1019.5
20260508093147 50 170 0.0 0.0 0.00 0.00 0.00 91 1019.1
20260508091646 49 38 0.0 0.0 0.00 0.00 0.00 91 1019.2
20260508090143 49 38 0.0 0.0 0.00 0.00 0.00 90 1019.2
20260508084639 49 38 0.0 0.0 0.00 0.00 0.00 89 1019.1
20260508083137 50 38 0.0 0.0 0.00 0.00 0.00 88 1019.0
20260508081633 50 38 0.0 0.0 0.00 0.00 0.00 87 1018.8
20260508080131 50 38 0.0 0.0 0.00 0.00 0.00 87 1018.8
20260508074627 50 38 0.0 0.0 0.00 0.00 0.00 86 1018.9
20260508073125 51 38 0.0 0.0 0.00 0.00 0.00 86 1018.6
20260508071621 51 38 0.0 0.0 0.00 0.00 0.00 85 1018.6
20260508070121 52 38 0.0 0.0 0.00 0.00 0.00 82 1018.5
20260508064619 53 38 0.0 0.0 0.00 0.00 0.00 82 1018.5
20260508063118 53 38 0.0 0.0 0.00 0.00 0.00 81 1018.5
20260508061615 54 38 0.0 0.0 0.00 0.00 0.00 77 1018.4
20260508060112 54 38 0.0 0.0 0.00 0.00 0.00 78 1018.4
20260508054613 55 38 0.0 0.0 0.00 0.00 0.00 77 1018.3
20260508053110 56 38 0.0 0.0 0.00 0.00 0.00 75 1018.3